Regional Weather Roundup
Issued by NWS

Home | Current Version | Previous Version | Graphics & Text | Print | Product List | Glossary On
Versions: 1 2 3 4 5 6 7 8 9 10 11 12 13 14 15 16 17 18 19 20 21 22 23 24 25 26 27 28 29 30 31 32 33 34 35 36 37 38 39 40 41 42 43 44 45 46 47 48 49 50
689
ASUS45 KBOU 290107
RWRCO

WEATHER ROUNDUP FOR COLORADO
NATIONAL WEATHER SERVICE DENVER/BOULDER CO
700 PM MDT SUN MAY 28 2017

NOTE: "FAIR" INDICATES FEW OR NO CLOUDS BELOW 12000 FEET WITH NO
SIGNIFICANT WEATHER AND/OR OBSTRUCTIONS TO VISIBILITY.

COZ001>005-013-030-031-290200-
...NORTHWEST COLORADO...

CITY           SKY/WX    TMP DP  RH WIND       PRES   REMARKS
CRAIG          FAIR      66  29  24 NW6       30.23F
HAYDEN         FAIR      64  28  25 N7        30.25S
MEEKER         FAIR      68  26  20 W10       30.23S
RABBIT EARS PA NOT AVBL
STEAMBOAT SPGS NOT AVBL
WALDEN         NOT AVBL
$$

COZ006>008-011-290200-
...WEST CENTRAL VALLEYS...

CITY           SKY/WX    TMP DP  RH WIND       PRES   REMARKS
GRAND JUNCTION FAIR      76  23  14 W9        30.11F
MONTROSE       FAIR      72  10   9 N6        30.17F
EAGLE          FAIR      67  22  18 NW8       30.23S
RIFLE          FAIR      74  21  13 W7        30.15S
DELTA          FAIR      79  11   7 W12       30.12F
NUCLA          FAIR      72  14  11 N6        30.20F
$$

COZ017>023-064>068-290200-
...SOUTHWEST COLORADO...

CITY           SKY/WX    TMP DP  RH WIND       PRES   REMARKS
DURANGO        FAIR      70   3   7 W10       30.19F
CORTEZ         FAIR      74   9   8 VRB5      30.16F
PAGOSA SPRINGS FAIR      68   5   8 W7        30.25S
TELLURIDE      FAIR      59   9  13 NW8       30.35F
WOLF CREEK PAS NOT AVBL
$$

COZ009-010-012-014-032>034-037-058>063-290200-
...CENTRAL COLORADO...

CITY           SKY/WX    TMP DP  RH WIND       PRES   REMARKS
ASPEN          FAIR      61  22  22 W6        30.26S
BUENA VISTA    FAIR      63  10  12 SW5G13    30.26S
COPPER MTN     NOT AVBL
BERTHOUD PASS  NOT AVBL
COTTONWOOD PAS NOT AVBL
GUNNISON       FAIR      64  23  21 N13       30.24F
KREMMLING      NOT AVBL
LEADVILLE      FAIR      51  19  28 N10G17    30.37S
SALIDA         FAIR      66  18  16 SE17G24   30.30S
SUNLIGHT       NOT AVBL
WILKERSON PASS NOT AVBL
$$

COZ069>075-290200-
...SAN LUIS VALLEY/SANGRE DE CRISTO MOUNTAINS...

CITY           SKY/WX    TMP DP  RH WIND       PRES   REMARKS
ALAMOSA        FAIR      66  15  14 E6        30.22F
DEL NORTE      NOT AVBL
LA VETA PASS   NOT AVBL
SAGUACHE       NOT AVBL
$$

COZ035-036-038>040-290200-
...NORTHERN COLORADO FRONT RANGE...

CITY           SKY/WX    TMP DP  RH WIND       PRES   REMARKS
DENVER INTL AP FAIR      68  32  26 CALM      30.19S
DMNS CITY PARK   N/A     68  32  25 N12G17    30.18S
AURORA         MOSUNNY   67  36  32 E6        30.20F
FRONT RANGE AP MOSUNNY   68  39  34 N5        30.20F
ERIE MUNI ARPT NOT AVBL
BOULDER MUN AP NOT AVBL
CENTENNIAL     FAIR      65  36  34 E7        30.21S
BROOMFIELD     MOSUNNY   68  34  28 NE5       30.20F
FORT COLLINS   FAIR      68  39  34 E8        30.17F
LONGMONT       NOT AVBL
$$

COZ041-046-047-076>085-087-088-290200-
...PIKES PEAK/PALMER DIVIDE AND SOUTHERN FOOTHILLS...

CITY           SKY/WX    TMP DP  RH WIND       PRES   REMARKS
COLO. SPRINGS  PTSUNNY   65  31  28 S6        30.25R
A. F. ACADEMY  CLOUDY    62  33  33 SW14      30.25R
SCHRIEVER AFB  FAIR      62  30  30 E8        30.25S
CHEYENNE MTN   FAIR      58  30  33 CALM      30.23R
ELLICOTT       FAIR     N/A N/A N/A NE3       30.23S
FALCON         FAIR      58  34  40 S5        30.29R
FORT CARSON    FAIR      66  30  25 CALM      30.22R
LIMON          FAIR      67  35  30 CALM      30.20S
MONUMENT HILL  NOT AVBL
CANON CITY     NOT AVBL
WALSENBURG     FAIR      64  36  34 MISG      30.23S
TRINIDAD       FAIR      66  30  26 E7        30.22F
$$

COZ042>045-048>051-090-091-290200-
...NORTHEAST COLORADO...

CITY           SKY/WX    TMP DP  RH WIND       PRES   REMARKS
GREELEY ARPT   FAIR      67  40  37 NE13      30.16F
AKRON          FAIR      68  39  34 N12       30.15S
BURLINGTON     FAIR      71  39  31 W5        30.13F
WRAY           FAIR      72  37  28 N12       30.10R
YUMA           NOT AVBL
STERLING       NOT AVBL
HOLYOKE        NOT AVBL
FORT MORGAN    FAIR      65  37  34 NW5       30.15S
$$

COZ086-089-092>099-290200-
...SOUTHEAST COLORADO...

CITY           SKY/WX    TMP DP  RH WIND       PRES   REMARKS
PUEBLO         FAIR      71  34  25 S10       30.16S
LA JUNTA       FAIR      72  38  29 SE6       30.14F
LAMAR          FAIR      75  39  27 N5        30.10F
SPRINGFIELD      N/A     69  38  32 N6        30.16F
$$




USA.gov is the U.S. government's official web portal to all federal, state and local government web resources and services.